Time,TemperatureF,DewpointF,PressureIn,WindDirection,WindDirectionDegrees,WindSpeedMPH,WindSpeedGustMPH,Humidity,HourlyPrecipIn,Conditions,Clouds,dailyrainin,SolarRadiationWatts/m^2,SoftwareType,DateUTC
2013-07-03 00:02:00,67.0,66.0,-100.00,East,91,2.0,4.0,96,0.01,,,0.02,0.000000,,2013-07-03 04:02:00,
2013-07-03 00:11:00,67.0,66.0,-100.00,East,91,2.0,4.0,96,0.01,,,0.02,0.000000,,2013-07-03 04:11:00,
2013-07-03 00:22:00,67.0,66.0,-100.00,East,91,2.0,4.0,96,0.01,,,0.02,0.000000,,2013-07-03 04:22:00,
2013-07-03 00:52:00,66.0,65.0,-100.00,ESE,107,0.0,4.0,98,0.00,,,0.01,0.000000,,2013-07-03 04:52:00,
2013-07-03 01:02:00,66.0,65.0,-100.00,ESE,107,0.0,4.0,98,0.00,,,0.01,0.000000,,2013-07-03 05:02:00,
2013-07-03 01:12:00,66.0,65.0,-100.00,ESE,107,0.0,4.0,98,0.00,,,0.01,0.000000,,2013-07-03 05:12:00,
2013-07-03 01:23:00,66.0,65.0,-100.00,ESE,107,0.0,4.0,98,0.00,,,0.01,0.000000,,2013-07-03 05:23:00,
2013-07-03 02:01:00,66.0,66.0,-100.00,East,99,1.0,2.0,100,0.00,,,0.01,0.000000,,2013-07-03 06:01:00,
2013-07-03 02:08:00,66.0,66.0,-100.00,East,99,1.0,2.0,100,0.00,,,0.01,0.000000,,2013-07-03 06:08:00,
2013-07-03 02:15:00,66.0,66.0,-100.00,East,99,1.0,2.0,100,0.00,,,0.01,0.000000,,2013-07-03 06:15:00,
2013-07-03 02:25:00,66.0,66.0,-100.00,ENE,77,1.0,3.0,100,0.00,,,0.01,0.000000,,2013-07-03 06:25:00,
2013-07-03 02:58:00,66.0,66.0,-100.00,ENE,77,1.0,3.0,100,0.00,,,0.01,0.000000,,2013-07-03 06:58:00,
2013-07-03 03:08:00,66.0,66.0,-100.00,ENE,77,1.0,3.0,100,0.00,,,0.01,0.000000,,2013-07-03 07:08:00,
2013-07-03 03:16:00,66.0,66.0,-100.00,ENE,77,1.0,3.0,100,0.00,,,0.01,0.000000,,2013-07-03 07:16:00,
2013-07-03 03:25:00,65.0,65.0,-100.00,ENE,67,1.0,2.0,100,0.00,,,0.01,0.000000,,2013-07-03 07:25:00,
2013-07-03 04:03:00,65.0,65.0,-100.00,ENE,67,1.0,2.0,100,0.00,,,0.01,0.000000,,2013-07-03 08:03:00,
2013-07-03 04:11:00,65.0,65.0,-100.00,ENE,67,1.0,2.0,100,0.00,,,0.01,0.000000,,2013-07-03 08:11:00,
2013-07-03 04:25:00,65.0,65.0,-100.00,ESE,109,1.0,2.0,100,0.00,,,0.01,0.000000,,2013-07-03 08:25:00,
2013-07-03 04:58:00,65.0,65.0,-100.00,ESE,109,1.0,2.0,100,0.00,,,0.01,0.000000,,2013-07-03 08:58:00,
2013-07-03 05:08:00,65.0,65.0,-100.00,ESE,109,1.0,2.0,100,0.00,,,0.01,0.000000,,2013-07-03 09:08:00,
2013-07-03 05:16:00,65.0,65.0,-100.00,ESE,109,1.0,2.0,100,0.00,,,0.01,0.000000,,2013-07-03 09:16:00,
2013-07-03 05:25:00,64.0,64.0,-100.00,NE,54,1.0,3.0,100,0.00,,,0.01,0.000000,,2013-07-03 09:25:00,
2013-07-03 06:06:00,64.0,64.0,-100.00,NE,54,1.0,3.0,100,0.00,,,0.01,0.000000,,2013-07-03 10:06:00,
2013-07-03 06:17:00,64.0,64.0,-100.00,NE,54,1.0,3.0,100,0.00,,,0.01,0.000000,,2013-07-03 10:17:00,
2013-07-03 06:25:00,64.0,64.0,-100.00,ESE,118,3.0,4.0,100,0.00,,,0.01,11.000000,,2013-07-03 10:25:00,
2013-07-03 06:57:00,64.0,64.0,-100.00,ESE,118,3.0,4.0,100,0.00,,,0.01,11.000000,,2013-07-03 10:57:00,
2013-07-03 07:07:00,64.0,64.0,-100.00,ESE,118,3.0,4.0,100,0.00,,,0.01,11.000000,,2013-07-03 11:07:00,
2013-07-03 07:16:00,64.0,64.0,-100.00,ESE,118,3.0,4.0,100,0.00,,,0.01,11.000000,,2013-07-03 11:16:00,
2013-07-03 07:59:00,66.0,66.0,-100.00,SE,131,3.0,5.0,100,0.00,,,0.01,69.000000,,2013-07-03 11:59:00,
2013-07-03 08:08:00,66.0,66.0,-100.00,SE,131,3.0,5.0,100,0.00,,,0.01,69.000000,,2013-07-03 12:08:00,
2013-07-03 08:16:00,66.0,66.0,-100.00,SE,131,3.0,5.0,100,0.00,,,0.01,69.000000,,2013-07-03 12:16:00,
2013-07-03 08:25:00,72.0,70.0,-100.00,NE,52,2.0,3.0,93,0.00,,,0.01,179.000000,,2013-07-03 12:25:00,
2013-07-03 08:59:00,72.0,70.0,-100.00,NE,52,2.0,3.0,93,0.00,,,0.01,179.000000,,2013-07-03 12:59:00,
2013-07-03 09:08:00,72.0,70.0,-100.00,NE,52,2.0,3.0,93,0.00,,,0.01,179.000000,,2013-07-03 13:08:00,
2013-07-03 09:17:00,72.0,70.0,-100.00,NE,52,2.0,3.0,93,0.00,,,0.01,179.000000,,2013-07-03 13:17:00,
2013-07-03 09:25:00,79.0,72.0,-100.00,SW,229,5.0,8.0,78,0.00,,,0.01,404.000000,,2013-07-03 13:25:00,
2013-07-03 10:07:00,79.0,72.0,-100.00,SW,229,5.0,8.0,78,0.00,,,0.01,404.000000,,2013-07-03 14:07:00,
2013-07-03 10:15:00,79.0,72.0,-100.00,SW,229,5.0,8.0,78,0.00,,,0.01,404.000000,,2013-07-03 14:15:00,
2013-07-03 10:25:00,81.0,71.0,-100.00,SSW,211,5.0,8.0,72,0.00,,,0.01,530.000000,,2013-07-03 14:25:00,
2013-07-03 11:06:00,81.0,71.0,-100.00,SSW,211,5.0,8.0,72,0.00,,,0.01,530.000000,,2013-07-03 15:06:00,
2013-07-03 11:58:00,84.0,72.0,-100.00,SW,232,2.0,8.0,67,0.00,,,0.01,513.000000,,2013-07-03 15:58:00,
2013-07-03 12:07:00,84.0,72.0,-100.00,SW,232,2.0,8.0,67,0.00,,,0.01,513.000000,,2013-07-03 16:07:00,
2013-07-03 12:17:00,84.0,72.0,-100.00,SW,232,2.0,8.0,67,0.00,,,0.01,513.000000,,2013-07-03 16:17:00,
2013-07-03 12:24:00,84.0,72.0,-100.00,SW,232,2.0,8.0,67,0.00,,,0.01,513.000000,,2013-07-03 16:24:00,
2013-07-03 12:25:00,84.0,71.0,-100.00,West,263,3.0,7.0,65,0.00,,,0.01,547.000000,,2013-07-03 16:25:00,
2013-07-03 13:09:00,84.0,71.0,-100.00,West,263,3.0,7.0,65,0.00,,,0.01,547.000000,,2013-07-03 17:09:00,
2013-07-03 13:17:00,84.0,71.0,-100.00,West,263,3.0,7.0,65,0.00,,,0.01,547.000000,,2013-07-03 17:17:00,
2013-07-03 13:25:00,85.0,70.0,-100.00,West,260,3.0,8.0,62,0.00,,,0.01,463.000000,,2013-07-03 17:25:00,
2013-07-03 13:56:00,85.0,70.0,-100.00,West,260,3.0,8.0,62,0.00,,,0.01,463.000000,,2013-07-03 17:56:00,
2013-07-03 14:08:00,85.0,70.0,-100.00,West,260,3.0,8.0,62,0.00,,,0.01,463.000000,,2013-07-03 18:08:00,
2013-07-03 14:16:00,85.0,70.0,-100.00,West,260,3.0,8.0,62,0.00,,,0.01,463.000000,,2013-07-03 18:16:00,
2013-07-03 14:25:00,88.0,70.0,-100.00,SSW,206,3.0,9.0,56,0.00,,,0.01,667.000000,,2013-07-03 18:25:00,
2013-07-03 14:59:00,88.0,70.0,-100.00,SSW,206,3.0,9.0,56,0.00,,,0.01,667.000000,,2013-07-03 18:59:00,
2013-07-03 15:16:00,88.0,70.0,-100.00,SSW,206,3.0,9.0,56,0.00,,,0.01,667.000000,,2013-07-03 19:16:00,
2013-07-03 15:25:00,86.0,74.0,-100.00,North,9,6.0,12.0,67,0.00,,,0.01,723.000000,,2013-07-03 19:25:00,
2013-07-03 16:06:00,86.0,74.0,-100.00,North,9,6.0,12.0,67,0.00,,,0.01,723.000000,,2013-07-03 20:06:00,
2013-07-03 16:15:00,86.0,74.0,-100.00,North,9,6.0,12.0,67,0.00,,,0.01,723.000000,,2013-07-03 20:15:00,
2013-07-03 16:25:00,84.0,74.0,-100.00,NNE,13,8.0,14.0,73,0.00,,,0.01,568.000000,,2013-07-03 20:25:00,
2013-07-03 16:57:00,84.0,74.0,-100.00,NNE,13,8.0,14.0,73,0.00,,,0.01,568.000000,,2013-07-03 20:57:00,
2013-07-03 17:06:00,84.0,74.0,-100.00,NNE,13,8.0,14.0,73,0.00,,,0.01,568.000000,,2013-07-03 21:06:00,
2013-07-03 17:14:00,84.0,74.0,-100.00,NNE,13,8.0,14.0,73,0.00,,,0.01,568.000000,,2013-07-03 21:14:00,
2013-07-03 18:25:00,75.0,71.0,-100.00,ENE,62,5.0,11.0,86,-99.99,,,0.50,0.000000,,2013-07-03 22:25:00,
2013-07-03 18:57:00,75.0,71.0,-100.00,ENE,62,5.0,11.0,86,-99.99,,,0.50,0.000000,,2013-07-03 22:57:00,
2013-07-03 19:07:00,75.0,71.0,-100.00,ENE,62,5.0,11.0,86,-99.99,,,0.50,0.000000,,2013-07-03 23:07:00,
2013-07-03 19:14:00,75.0,71.0,-100.00,ENE,62,5.0,11.0,86,-99.99,,,0.50,0.000000,,2013-07-03 23:14:00,
2013-07-03 19:25:00,75.0,71.0,-100.00,East,86,5.0,15.0,87,0.00,,,0.50,0.000000,,2013-07-03 23:25:00,
2013-07-03 19:57:00,75.0,71.0,-100.00,East,86,5.0,15.0,87,0.00,,,0.50,0.000000,,2013-07-03 23:57:00,
2013-07-03 20:07:00,75.0,71.0,-100.00,East,86,5.0,15.0,87,0.00,,,0.50,0.000000,,2013-07-04 00:07:00,
2013-07-03 20:17:00,75.0,71.0,-100.00,East,86,5.0,15.0,87,0.00,,,0.50,0.000000,,2013-07-04 00:17:00,
2013-07-03 20:57:00,74.0,70.0,-100.00,ESE,123,4.0,11.0,86,0.00,,,0.50,0.000000,,2013-07-04 00:57:00,
2013-07-03 21:06:00,74.0,70.0,-100.00,ESE,123,4.0,11.0,86,0.00,,,0.50,0.000000,,2013-07-04 01:06:00,
2013-07-03 21:16:00,74.0,70.0,-100.00,ESE,123,4.0,11.0,86,0.00,,,0.50,0.000000,,2013-07-04 01:16:00,
2013-07-03 21:57:00,72.0,69.0,-100.00,SE,127,3.0,10.0,91,0.00,,,0.50,0.000000,,2013-07-04 01:57:00,
2013-07-03 22:08:00,72.0,69.0,-100.00,SE,127,3.0,10.0,91,0.00,,,0.50,0.000000,,2013-07-04 02:08:00,
2013-07-03 22:24:00,72.0,69.0,-100.00,SE,127,3.0,10.0,91,0.00,,,0.50,0.000000,,2013-07-04 02:24:00,
2013-07-03 22:25:00,72.0,69.0,-100.00,SE,142,2.0,5.0,90,0.00,,,0.50,0.000000,,2013-07-04 02:25:00,
2013-07-03 23:05:00,72.0,69.0,-100.00,SE,142,2.0,5.0,90,0.00,,,0.50,0.000000,,2013-07-04 03:05:00,
2013-07-03 23:15:00,72.0,69.0,-100.00,SE,142,2.0,5.0,90,0.00,,,0.50,0.000000,,2013-07-04 03:15:00,